Location: Asheville, NC
(35.6000°N, 82.5500°W)
Time: 17:06:43
(UTC-04:00)

AO-73 - Pass Details

Date: 14 March 2018
Orbit: 582 x 665 km, 97.6° (Epoch: 17 June)

Event Time Altitude Azimuth Distance (km) Brightness Sun altitude
Rises 20:55:27 0° 171° (S) 2,879 ? -16.7°
Reaches altitude 10° 20:57:40 10° 173° (S) 1,964 ? -17.2°
Maximum altitude 21:01:55 74° 258° (WSW) 632 ? -18.0°
Drops below altitude 10° 21:06:06 10° 344° (NNW) 1,933 ? -18.8°
Sets 21:08:16 0° 346° (NNW) 2,829 ? -19.3°
